Other Surface Observations
Issued by NWS Tucson, AZ

Home | Current Version | Previous Version | Text Only | Print | Product List | Glossary On
Versions: 1 2 3 4 5 6 7 8 9 10 11 12 13 14 15 16 17 18 19 20 21 22 23 24 25 26 27 28 29 30 31 32 33 34 35 36 37 38 39 40 41 42 43 44 45 46 47 48 49 50
000
SXUS55 KTWC 211815
OSOTWC

WEATHER ROUNDUP FOR SOUTHEAST ARIZONA
NATIONAL WEATHER SERVICE TUCSON AZ
1115 AM MST SUN JAN 21 2018

AZZ504>506-514-211915-
LOCATION       SKY/WX    TMP DP  RH WIND       PRES   REMARKS
TUCSON         SUNNY     49  25  39 N7        30.23R
DAVIS-MONTHAN  SUNNY     47  25  42 NW9       30.21R
CHILDRENS PARK N/A      N/A N/A  47 NW4               PIMA CO DEQ
ALVERNON/22ND  N/A       45 N/A N/A W2                PIMA CO DEQ
CHERRY/GLENN   N/A      N/A N/A N/A N/A               PIMA CO DEQ
TANGERINE      N/A       46 N/A N/A SW1               PIMA CO DEQ
CONTL RANCH    N/A       46  27  47 NW4               PIMA CO DEQ
GRANT/1ST      N/A       45  27  49 NW4               PIMA CO DEQ
CRAYCROFT/22ND N/A       44  28  52 SW4               PIMA CO DEQ
GOLFLINKS/KOLB N/A       43  27  53 S4                PIMA CO DEQ
AJO/12TH       N/A       46  27  48 S4                PIMA CO DEQ
FAIRGROUNDS    N/A       42 N/A N/A W8                PIMA CO DEQ
SAGUARO        N/A       47  27  45 CALM              *SABINO CYN
SAN CARLOS     N/A       46  29  52 SW5G11            *SAN CARLOS
GREEN VALLEY   N/A       48  17  29 W7                PIMA CO DEQ
HORSE CAMP CYN N/A       38  25  60 SW10G15           *ARAVAIPA CYN
RINCON MTNS    N/A       25   9  50 W7G17             *NR MANNING CAMP
$$

AZZ509>511-211915-
LOCATION       SKY/WX    TMP DP  RH WIND       PRES   REMARKS
SAFFORD        SUNNY     46  21  37 NW21      30.13R
STRAY HORSE    N/A       22  15  76 NW8G23            *
TRAIL CABIN    N/A       32  22  66 W7G16             *N OF GRANVILLE
BLACK HILLS    NOT AVBL
DRY LAKE       N/A       24  22  93 NW3G10            *NATANES MTNS
NOON CREEK     N/A       42  14  32 NE5G10            *PINALENO MTNS
COLUMBINE      N/A       14  12  93 W4G10             *PINALENO MTNS
GUTHRIE        N/A       29  21  72 W8G28             *SW OF GUTHRIE
$$

AZZ502-503-513-211915-
LOCATION       SKY/WX    TMP DP  RH WIND       PRES   REMARKS
NOGALES        SUNNY     45  16  31 VRB6      30.19R
SELLS          N/A       51  26  38 NE3               *
SASABE         N/A       47  21  36 N3                *ALTAR VLY
HOPKINS        N/A       33  -5  18 W11G22            *SANTA RITA MTNS
CARR CYN       N/A       41  16  36 E3                *W OF HEREFORD
$$

AZZ507-508-512-211915-
LOCATION       SKY/WX    TMP DP  RH WIND       PRES   REMARKS
SIERRA VISTA   SUNNY     41  14  32 W20       30.18S
DOUGLAS        SUNNY     44  16  32 W9        30.18R
EMPIRE MTNS    NOT AVBL
MULESHOE RANCH N/A       38  16  41 NW12G19           *PRESERVE
HEADQUARTERS   N/A       37  18  46 W9G21             *CHIRICAHUA MTNS
$$

.............................NOTES.............................
THIS IS AN AUTOMATED COLLECTIVE WITH MINIMAL QUALITY CONTROL.
PIMA CO DEQ SITES HAVE NONSTANDARD WIND SENSOR HEIGHTS.
PIMA CO DEQ SITES DO NOT REPORT WIND GUSTS.
* INDICATES WIND SENSORS LOCATED AT 20 FEET INSTEAD OF 33 FEET.
..............................KEY..............................
SKY/WX - SKY CONDITION/WEATHER
TMP    - TEMPERATURE IN FAHRENHEIT
DP     - DEWPOINT IN FAHRENHEIT
RH     - RELATIVE HUMIDITY IN PERCENT
WIND   - DIRECTION AND SPEED IN MILES PER HOUR (MPH)
VRB    - VARIABLE WIND DIRECTION
PRES   - MEAN SEA LEVEL PRESSURE IN INCHES OF MERCURY
         F - FALLING PRESSURE   R - RISING PRESSURE
         S - STEADY PRESSURE
VSB    - VISIBILITY IN MILES
HX     - HEAT INDEX IN FAHRENHEIT
WCI    - WIND CHILL INDEX IN FAHRENHEIT
N/A    - NOT AVAILABLE
AFB    - AIR FORCE BASE
         DAVIS-MONTHAN IS DAVIS-MONTHAN AIR FORCE BASE
CYN    - CANYON
MTNS   - MOUNTAINS
NCA    - NATIONAL CONSERVATION AREA
NR     - NEAR
VLY    - VALLEY
CONTL  - CONTINENTAL
PIMA CO DEQ - PIMA COUNTY DEPT OF ENVIRONMENTAL QUALITY



USA.gov is the U.S. government's official web portal to all federal, state and local government web resources and services.